GW4668 Weather Reports


Display with metric or nautical units.
time (UTC)temp
F
wind
direction
speed
MPH
gust
MPH
rain 1hr
in
rain 24hr
in
rain mn
in
humidity
%
barometer
mb
20260506062131 94 344 0.0 3.0 0.00 0.00 0.00 60 1007.4
20260506061627 95 325 1.0 3.0 0.00 0.00 0.00 60 1007.3
20260506061125 94 2 6.0 7.0 0.00 0.00 0.00 61 1007.4
20260506060623 94 353 8.0 11.0 0.00 0.00 0.00 62 1007.7
20260506060120 95 321 4.0 8.0 0.00 0.00 0.00 61 1007.4
20260506051051 93 51 2.0 4.0 0.00 0.00 0.00 62 1008.8
20260506050549 93 1 8.0 10.0 0.00 0.00 0.00 62 1008.9
20260506045040 93 3 8.0 10.0 0.00 0.00 0.00 63 1009.2
20260506044538 93 114 3.0 7.0 0.00 0.00 0.00 64 1009.5
20260506044034 93 84 4.0 6.0 0.00 0.00 0.00 62 1009.5
20260506043531 93 16 3.0 9.0 0.00 0.00 0.00 63 1009.9
20260506043030 91 322 2.0 4.0 0.00 0.00 0.00 65 1009.6
20260506042529 92 59 6.0 8.0 0.00 0.00 0.00 65 1009.9
20260506042026 93 332 2.0 3.0 0.00 0.00 0.00 65 1009.9
20260506041525 93 40 4.0 6.0 0.00 0.00 0.00 65 1009.9
20260506041021 91 29 2.0 9.0 0.00 0.00 0.00 67 1010.0
20260506040519 91 55 8.0 9.0 0.00 0.00 0.00 68 1010.2
20260506040015 90 18 5.0 7.0 0.00 0.00 0.00 69 1010.2
20260506035512 91 9 1.0 8.0 0.00 0.00 0.00 68 1010.2
20260506035008 91 246 1.0 2.0 0.00 0.00 0.00 68 1010.3
20260506034506 90 26 5.0 7.0 0.00 0.00 0.00 70 1010.2
20260506034003 91 59 3.0 7.0 0.00 0.00 0.00 70 1010.3
20260506033500 91 117 2.0 8.0 0.00 0.00 0.00 70 1010.4
20260506032956 91 33 2.0 7.0 0.00 0.00 0.00 70 1010.4
20260506032454 90 105 3.0 7.0 0.00 0.00 0.00 71 1010.2
20260506031950 89 98 6.0 11.0 0.00 0.00 0.00 72 1010.4
20260506031448 88 53 4.0 8.0 0.00 0.00 0.00 73 1010.7
20260506030945 88 24 2.0 6.0 0.00 0.00 0.00 73 1010.5
20260506030443 87 119 3.0 7.0 0.00 0.00 0.00 74 1010.7
20260506025940 87 58 5.0 6.0 0.00 0.00 0.00 74 1010.7
20260506025437 87 60 2.0 4.0 0.00 0.00 0.00 74 1010.8
20260506024933 87 42 3.0 4.0 0.00 0.00 0.00 75 1010.7
20260506024430 87 54 2.0 6.0 0.00 0.00 0.00 75 1011.1
20260506023926 87 5 7.0 8.0 0.00 0.00 0.00 74 1010.9
20260506023423 88 72 1.0 6.0 0.00 0.00 0.00 74 1010.7
20260506022920 87 75 5.0 8.0 0.00 0.00 0.00 74 1010.7
20260506022418 87 30 3.0 7.0 0.00 0.00 0.00 76 1011.1
20260506021915 87 0 6.0 7.0 0.00 0.00 0.00 76 1010.8
20260506021413 87 2 4.0 8.0 0.00 0.00 0.00 77 1011.0
20260506020909 86 49 1.0 3.0 0.00 0.00 0.00 77 1010.9
20260506020407 86 38 6.0 7.0 0.00 0.00 0.00 76 1011.1
20260506015904 86 10 8.0 9.0 0.00 0.00 0.00 77 1010.8
20260506015402 87 66 2.0 4.0 0.00 0.00 0.00 77 1010.9
20260506014858 86 91 2.0 6.0 0.00 0.00 0.00 77 1010.8
20260506014355 86 73 5.0 9.0 0.00 0.00 0.00 78 1010.8
20260506013852 86 71 2.0 7.0 0.00 0.00 0.00 79 1010.7
20260506013350 85 20 2.0 3.0 0.00 0.00 0.00 80 1010.7
20260506012845 86 359 0.0 1.0 0.00 0.00 0.00 80 1010.5
20260506012343 86 17 2.0 6.0 0.00 0.00 0.00 80 1010.5
20260506011840 85 5 3.0 3.0 0.00 0.00 0.00 81 1010.7
20260506011336 85 19 2.0 3.0 0.00 0.00 0.00 81 1010.5
20260506010834 85 9 2.0 4.0 0.00 0.00 0.00 81 1010.5
20260506010332 85 35 1.0 2.0 0.00 0.00 0.00 81 1010.5
20260506005828 85 352 1.0 3.0 0.00 0.00 0.00 82 1010.6
20260506005325 84 357 0.0 1.0 0.00 0.00 0.00 82 1010.4
20260506004821 84 31 2.0 3.0 0.00 0.00 0.00 82 1010.3
20260506004319 84 1 0.0 3.0 0.00 0.00 0.00 82 1010.3
20260506003815 83 0 1.0 3.0 0.00 0.00 0.00 83 1010.3
20260506003312 83 33 2.0 6.0 0.00 0.00 0.00 83 1010.3
20260506002808 83 57 3.0 4.0 0.00 0.00 0.00 83 1010.2
20260506002306 83 19 1.0 6.0 0.00 0.00 0.00 83 1010.1
20260506001800 83 23 2.0 4.0 0.00 0.00 0.00 83 1010.0
20260506001258 83 21 0.0 3.0 0.00 0.00 0.00 84 1010.0
20260506000754 83 40 2.0 4.0 0.00 0.00 0.00 84 1009.8
20260506000254 83 40 2.0 3.0 0.00 0.00 0.00 84 1010.0
20260505235749 83 47 4.0 4.0 0.00 0.00 0.00 84 1009.8
20260505235246 83 8 1.0 2.0 0.00 0.00 0.00 84 1009.6
20260505234743 83 331 2.0 3.0 0.00 0.00 0.00 85 1009.6
20260505234241 82 32 2.0 4.0 0.00 0.00 0.00 85 1009.5
20260505233737 82 9 2.0 3.0 0.00 0.00 0.00 85 1009.6
20260505233235 82 350 3.0 3.0 0.00 0.00 0.00 85 1009.5
20260505232732 83 17 2.0 4.0 0.00 0.00 0.00 85 1009.5
20260505232229 83 338 2.0 4.0 0.00 0.00 0.00 86 1009.4
20260505231726 82 47 2.0 4.0 0.00 0.00 0.00 86 1009.2
20260505231225 82 57 2.0 3.0 0.00 0.00 0.00 86 1009.1
20260505230723 82 15 2.0 2.0 0.00 0.00 0.00 86 1009.2
20260505230219 82 8 1.0 2.0 0.00 0.00 0.00 87 1009.1
20260505225715 82 92 1.0 2.0 0.00 0.00 0.00 87 1009.0
20260505225212 82 94 2.0 3.0 0.00 0.00 0.00 87 1009.1
20260505224708 82 32 2.0 3.0 0.00 0.00 0.00 87 1008.9
20260505224206 82 66 1.0 2.0 0.00 0.00 0.00 87 1009.0
20260505223703 82 38 2.0 2.0 0.00 0.00 0.00 88 1008.9
20260505223159 82 41 2.0 3.0 0.00 0.00 0.00 88 1009.0
20260505222655 82 42 2.0 3.0 0.00 0.00 0.00 88 1008.8
20260505222151 82 24 2.0 3.0 0.00 0.00 0.00 88 1008.6
20260505221649 81 58 2.0 3.0 0.00 0.00 0.00 88 1008.7
20260505221145 81 28 1.0 3.0 0.00 0.00 0.00 88 1008.5
20260505220643 81 2 0.0 1.0 0.00 0.00 0.00 88 1008.5
20260505220140 81 21 1.0 3.0 0.00 0.00 0.00 88 1008.6
20260505215638 81 31 2.0 2.0 0.00 0.00 0.00 88 1008.6
20260505215136 81 25 1.0 3.0 0.00 0.00 0.00 88 1008.4
20260505214633 81 49 1.0 3.0 0.00 0.00 0.00 88 1008.5
20260505214130 81 19 0.0 4.0 0.00 0.00 0.00 88 1008.6
20260505213628 81 12 2.0 4.0 0.00 0.00 0.00 88 1008.5
20260505213124 81 25 3.0 4.0 0.00 0.00 0.00 88 1008.4
20260505212620 81 56 2.0 3.0 0.00 0.00 0.00 88 1008.5
20260505212118 81 65 2.0 3.0 0.00 0.00 0.00 88 1008.4
20260505211615 81 42 1.0 3.0 0.00 0.00 0.00 88 1008.3
20260505211112 81 331 1.0 1.0 0.00 0.00 0.00 88 1008.4
20260505210609 81 353 2.0 2.0 0.00 0.00 0.00 88 1008.3
20260505210106 81 354 2.0 3.0 0.00 0.00 0.00 88 1008.5
20260505205603 81 1 2.0 4.0 0.00 0.00 0.00 88 1008.4
20260505205101 81 333 2.0 3.0 0.00 0.00 0.00 88 1008.3
20260505204558 81 334 2.0 4.0 0.00 0.00 0.00 88 1008.4
20260505204055 81 341 3.0 4.0 0.00 0.00 0.00 88 1008.3
20260505203551 81 346 4.0 6.0 0.00 0.00 0.00 88 1008.2
20260505203049 81 345 4.0 4.0 0.00 0.00 0.00 88 1008.1
20260505202544 81 357 2.0 3.0 0.00 0.00 0.00 88 1008.2
20260505202040 81 336 3.0 4.0 0.00 0.00 0.00 88 1008.2
20260505201538 81 335 2.0 2.0 0.00 0.00 0.00 88 1008.0
20260505201036 81 327 1.0 1.0 0.00 0.00 0.00 88 1008.1
20260505200533 81 341 1.0 1.0 0.00 0.00 0.00 88 1008.2
20260505200030 81 353 1.0 1.0 0.00 0.00 0.00 88 1008.0
20260505195526 81 8 0.0 1.0 0.00 0.00 0.00 88 1008.2
20260505195023 81 335 0.0 1.0 0.00 0.00 0.00 88 1008.2
20260505194516 81 344 1.0 1.0 0.00 0.00 0.00 88 1008.2
20260505194015 81 332 0.0 1.0 0.00 0.00 0.00 88 1008.3
20260505193513 81 317 2.0 2.0 0.00 0.00 0.00 88 1008.3
20260505193010 81 345 2.0 2.0 0.00 0.00 0.00 88 1008.3
20260505192509 81 333 2.0 2.0 0.00 0.00 0.00 88 1008.2
20260505192006 81 7 0.0 1.0 0.00 0.00 0.00 88 1008.4
20260505191504 81 37 1.0 2.0 0.00 0.00 0.00 88 1008.2
20260505191002 81 12 0.0 2.0 0.00 0.00 0.00 88 1008.5
20260505190456 81 61 2.0 3.0 0.00 0.00 0.00 88 1008.4
20260505185952 81 27 0.0 2.0 0.00 0.00 0.00 88 1008.3
20260505185450 81 1 0.0 2.0 0.00 0.00 0.00 88 1008.5
20260505184945 81 15 1.0 2.0 0.00 0.00 0.00 88 1008.6
20260505184442 81 347 3.0 3.0 0.00 0.00 0.00 88 1008.8
20260505183939 81 340 1.0 2.0 0.00 0.00 0.00 88 1008.8
20260505183436 80 348 2.0 3.0 0.00 0.00 0.00 88 1008.6
20260505182933 81 346 3.0 4.0 0.00 0.00 0.00 88 1008.9
20260505182430 80 336 3.0 4.0 0.00 0.00 0.00 88 1008.7
20260505181926 80 6 2.0 3.0 0.00 0.00 0.00 88 1008.7
20260505181424 80 348 2.0 4.0 0.00 0.00 0.00 88 1008.9
20260505180920 80 354 5.0 7.0 0.00 0.00 0.00 88 1008.9
20260505180416 80 343 4.0 4.0 0.00 0.00 0.00 88 1009.0
20260505175913 80 342 3.0 3.0 0.00 0.00 0.00 88 1008.9
20260505175409 80 326 3.0 4.0 0.00 0.00 0.00 88 1008.9
20260505174906 80 333 2.0 2.0 0.00 0.00 0.00 88 1009.0
20260505174404 81 343 2.0 4.0 0.00 0.00 0.00 88 1009.1
20260505173859 81 339 2.0 3.0 0.00 0.00 0.00 88 1009.3
20260505173356 81 297 4.0 4.0 0.00 0.00 0.00 87 1009.4
20260505172853 82 295 4.0 4.0 0.00 0.00 0.00 87 1009.2
20260505172351 82 334 3.0 4.0 0.00 0.00 0.00 87 1009.3
20260505171850 82 337 2.0 3.0 0.00 0.00 0.00 86 1009.3
20260505171347 82 315 2.0 3.0 0.00 0.00 0.00 86 1009.3
20260505170844 83 293 3.0 4.0 0.00 0.00 0.00 85 1009.4
20260505170341 84 2 0.0 0.0 0.00 0.00 0.00 85 1009.5
20260505165836 83 54 2.0 2.0 0.00 0.28 0.28 85 1009.5
20260505165332 83 33 1.0 2.0 0.00 0.28 0.28 85 1009.7
20260505164828 83 42 1.0 2.0 0.00 0.28 0.28 85 1009.7
20260505164325 83 49 1.0 1.0 0.00 0.28 0.28 85 1009.7
20260505163823 83 48 1.0 2.0 0.00 0.28 0.28 85 1009.7
20260505163321 83 29 0.0 2.0 0.00 0.28 0.28 85 1009.9
20260505162814 83 34 1.0 2.0 0.00 0.28 0.28 85 1010.0
20260505162310 82 93 2.0 3.0 0.00 0.28 0.28 86 1009.9
20260505161808 82 15 0.0 2.0 0.00 0.28 0.28 86 1009.9
20260505161305 82 70 1.0 2.0 0.00 0.28 0.28 87 1009.7
20260505160802 82 355 0.0 1.0 0.00 0.28 0.28 87 1009.6
20260505160300 82 338 1.0 1.0 0.00 0.28 0.28 87 1009.7
20260505153238 82 335 1.0 1.0 0.00 0.28 0.28 87 1009.7
20260505152735 82 353 1.0 2.0 0.00 0.28 0.28 87 1009.7
20260505152231 82 0 0.0 0.0 0.00 0.28 0.28 87 1009.6
20260505151726 81 15 0.0 1.0 0.00 0.28 0.28 87 1009.8
20260505151224 81 7 0.0 1.0 0.00 0.28 0.28 88 1009.9
20260505150720 81 9 0.0 1.0 0.00 0.28 0.28 88 1009.8
20260505150217 81 11 0.0 1.0 0.00 0.28 0.28 88 1009.9
20260505140645 81 11 0.0 1.0 0.00 0.28 0.28 88 1010.0
20260505140142 81 11 0.0 1.0 0.00 0.28 0.28 88 1010.0
20260505130106 78 283 2.0 2.0 0.00 0.28 0.28 90 1009.8
20260505124555 78 304 1.0 6.0 0.00 0.28 0.28 90 1009.7
20260505124052 78 304 1.0 6.0 0.00 0.28 0.28 90 1009.7
20260505123548 78 282 3.0 6.0 0.00 0.28 0.28 90 1009.7
20260505123045 77 275 3.0 4.0 0.00 0.28 0.28 91 1009.5
20260505122542 77 321 2.0 6.0 0.00 0.28 0.28 91 1009.8
20260505122038 77 331 4.0 4.0 0.00 0.28 0.28 91 1009.7
20260505121534 77 274 7.0 13.0 0.00 0.28 0.28 91 1009.6
20260505121031 77 289 4.0 8.0 0.07 0.28 0.28 91 1009.6
20260505120529 77 321 8.0 10.0 0.07 0.28 0.28 91 1009.3
20260505120024 77 324 9.0 13.0 0.00 0.27 0.27 91 1009.1
20260505115519 78 333 12.0 15.0 0.00 0.27 0.27 91 1009.1
20260505115017 78 307 8.0 14.0 0.00 0.27 0.27 91 1009.5
20260505114513 79 344 14.0 21.0 0.00 0.27 0.27 91 1009.3
20260505114010 79 326 11.0 14.0 0.00 0.27 0.27 91 1009.1
20260505113506 79 8 2.0 6.0 0.47 0.27 0.27 91 1008.8
20260505113003 78 359 8.0 14.0 0.52 0.27 0.27 91 1009.0
20260505112459 80 16 6.0 8.0 0.00 0.18 0.18 91 1008.9
20260505111956 80 335 2.0 6.0 0.00 0.18 0.18 91 1008.0
20260505111455 79 317 4.0 8.0 0.07 0.18 0.18 90 1007.9
20260505110952 80 287 7.0 9.0 0.78 0.18 0.18 90 1008.2
20260505110449 80 17 10.0 13.0 0.83 0.16 0.16 89 1008.2
20260505101920 88 163 8.0 22.0 0.00 0.00 0.00 74 1006.8
20260505101415 89 156 11.0 14.0 0.00 0.00 0.00 72 1006.9
20260505100911 89 162 8.0 13.0 0.00 0.00 0.00 73 1006.7
20260505100408 89 119 14.0 16.0 0.00 0.00 0.00 73 1006.6
20260505095903 89 129 14.0 18.0 0.00 0.00 0.00 72 1006.7
20260505095401 89 155 8.0 14.0 0.00 0.00 0.00 72 1006.7
20260505094857 90 155 17.0 21.0 0.00 0.00 0.00 71 1006.3
20260505094354 90 137 6.0 13.0 0.00 0.00 0.00 70 1006.5
20260505093850 90 157 6.0 13.0 0.00 0.00 0.00 70 1006.3
20260505093347 91 128 17.0 19.0 0.00 0.00 0.00 69 1006.1
20260505092844 91 175 11.0 16.0 0.00 0.00 0.00 69 1006.2
20260505092343 91 152 11.0 15.0 0.00 0.00 0.00 68 1006.1
20260505091839 91 65 2.0 17.0 0.00 0.00 0.00 68 1006.0
20260505091338 92 213 13.0 17.0 0.00 0.00 0.00 67 1006.0
20260505090835 92 52 8.0 14.0 0.00 0.00 0.00 67 1006.1
20260505090333 92 173 8.0 14.0 0.00 0.00 0.00 66 1006.2
20260505085830 93 123 6.0 11.0 0.00 0.00 0.00 66 1006.2
20260505085328 92 168 5.0 14.0 0.00 0.00 0.00 67 1006.0
20260505084826 93 109 9.0 11.0 0.00 0.00 0.00 65 1006.0
20260505084324 93 164 5.0 14.0 0.00 0.00 0.00 65 1005.8
20260505083821 93 124 6.0 13.0 0.00 0.00 0.00 65 1006.0
20260505083318 92 77 7.0 13.0 0.00 0.00 0.00 66 1006.0
20260505082814 93 148 9.0 14.0 0.00 0.00 0.00 64 1006.1
20260505082311 92 118 10.0 14.0 0.00 0.00 0.00 65 1005.9
20260505081808 93 129 8.0 14.0 0.00 0.00 0.00 64 1005.9
20260505081304 93 119 6.0 13.0 0.00 0.00 0.00 64 1006.1
20260505080801 93 141 7.0 14.0 0.00 0.00 0.00 64 1005.9
20260505080257 93 133 8.0 15.0 0.00 0.00 0.00 65 1006.2
20260505075752 93 134 11.0 14.0 0.00 0.00 0.00 64 1006.2
20260505075250 92 137 12.0 15.0 0.00 0.00 0.00 65 1006.2
20260505074747 93 168 9.0 15.0 0.00 0.00 0.00 65 1006.3
20260505074244 94 123 10.0 15.0 0.00 0.00 0.00 63 1006.4
20260505073742 93 212 5.0 7.0 0.00 0.00 0.00 64 1006.4
20260505073239 92 178 3.0 9.0 0.00 0.00 0.00 64 1006.3
20260505072736 91 154 5.0 9.0 0.00 0.00 0.00 65 1006.4
20260505072232 90 184 6.0 8.0 0.00 0.00 0.00 66 1006.7
20260505071727 90 153 7.0 11.0 0.00 0.00 0.00 68 1006.8
20260505071225 89 121 8.0 10.0 0.00 0.00 0.00 69 1007.0
20260505070722 89 196 6.0 10.0 0.00 0.00 0.00 69 1006.9
20260505070218 90 119 11.0 16.0 0.00 0.00 0.00 70 1007.0
20260505065714 91 130 9.0 15.0 0.00 0.00 0.00 69 1007.3